This is the latest recevied weather packets stored in our database for station/object NR6G-15. If no packets are shown the sender has not sent any weather packets the latest 10 day(s).
| Time | Temp. | Humidity | Pressure | Rain* | Wind** | Luminosity | Snow |
|---|---|---|---|---|---|---|---|
| 1787665673 | 20° C | 42% | 1028.3 hPa | 0 mm | - | - | - |
| 1787660956 | 19.44° C | 43% | 1027.8 hPa | 0 mm | - | - | - |
| 1787660656 | 19.44° C | 43% | 1027.7 hPa | 0 mm | - | - | - |
| 1787644186 | 19.44° C | 43% | 1028 hPa | 0 mm | - | - | - |
| 1787629608 | 20.56° C | 42% | 1027.3 hPa | 0 mm | - | - | - |
| 1787629308 | 20.56° C | 41% | 1027.3 hPa | 0 mm | - | - | - |
| 1787629008 | 20.56° C | 42% | 1027.2 hPa | 0 mm | - | - | - |
| 1787628708 | 20.56° C | 41% | 1027.1 hPa | 0 mm | - | - | - |
| 1787628407 | 20.56° C | 42% | 1027 hPa | 0 mm | - | - | - |
| 1787628107 | 20.56° C | 42% | 1027 hPa | 0 mm | - | - | - |
| 1787627807 | 20.56° C | 42% | 1027 hPa | 0 mm | - | - | - |
| 1787627508 | 20.56° C | 41% | 1027 hPa | 0 mm | - | - | - |
| 1787627082 | 20.56° C | 41% | 1026.8 hPa | 0 mm | - | - | - |
| 1787626482 | 20.56° C | 41% | 1026.7 hPa | 0 mm | - | - | - |
| 1787626185 | 20.56° C | 41% | 1026.7 hPa | 0 mm | - | - | - |
| 1787625582 | 21.11° C | 40% | 1026.5 hPa | 0 mm | - | - | - |
| 1787624982 | 21.67° C | 39% | 1026.5 hPa | 0 mm | - | - | - |
| 1787624682 | 22.22° C | 38% | 1026.4 hPa | 0 mm | - | - | - |
| 1787624381 | 22.22° C | 38% | 1026.4 hPa | 0 mm | - | - | - |
| 1787624081 | 22.78° C | 37% | 1026.3 hPa | 0 mm | - | - | - |
| 1787623756 | 22.78° C | 37% | 1026.3 hPa | 0 mm | - | - | - |
| 1787623455 | 22.78° C | 37% | 1026.3 hPa | 0 mm | - | - | - |
| 1787623155 | 23.33° C | 37% | 1026.3 hPa | 0 mm | - | - | - |
| 1787622855 | 23.33° C | 36% | 1026.3 hPa | 0 mm | - | - | - |
| 1787622555 | 23.33° C | 36% | 1026.3 hPa | 0 mm | - | - | - |
* Rain latest hour (hover to see other rain measurements)
** Current wind speed in m/s (hover to see current wind gust speed)